Location: Washington
(38.8950°N, 77.0370°W)
Time: 10:28:56
(UTC-04:00)

ISS - All Passes

Search period start: 25 April 2015 00:00
Search period end: 05 May 2015 00:00
Orbit: 395 x 402 km, 51.6° (Epoch: 25 April)

Date Brightness Start Highest point End Pass type
(mag) Time Alt. Az. Time Alt. Az. Time Alt. Az.
25 Apr - 11:48:25 10° SSW 11:51:14 28° SE 11:54:05 10° ENE daylight
25 Apr - 13:24:36 10° W 13:27:33 30° NNW 13:30:30 10° NE daylight
25 Apr - 15:04:00 10° NNW 15:04:45 11° N 15:05:27 10° N daylight
25 Apr - 16:41:55 10° N 16:42:18 10° N 16:42:44 10° NNE daylight
25 Apr - 18:16:40 10° NNW 18:19:32 28° NNE 18:22:25 10° E daylight
25 Apr - 19:52:58 10° WNW 19:55:55 31° SW 19:58:50 10° SSE daylight
26 Apr - 10:55:42 10° SSE 10:57:21 14° SE 10:59:07 10° E daylight
26 Apr - 12:30:13 10° WSW 12:33:25 56° NW 12:36:39 10° NE daylight
26 Apr - 14:08:39 10° NW 14:10:22 13° NNW 14:12:03 10° NNE daylight
26 Apr - 17:22:57 10° NNW 17:25:18 18° NNE 17:27:40 10° ENE daylight
26 Apr - 18:58:43 10° NW 19:01:58 70° SW 19:05:12 10° SE daylight
27 Apr - 11:36:09 10° SW 11:39:22 69° SE 11:42:38 10° NE daylight
27 Apr - 13:13:39 10° WNW 13:16:03 18° NNW 13:18:25 10° NNE daylight
27 Apr - 16:29:19 10° NNW 16:30:58 13° NNE 16:32:40 10° NE daylight
27 Apr - 18:04:42 10° NW 18:07:56 55° NE 18:11:08 10° ESE daylight
27 Apr - 19:42:11 10° W 19:43:59 14° SW 19:45:42 10° SSW daylight
28 Apr - 10:42:31 10° SSW 10:45:26 31° SE 10:48:23 10° ENE daylight
28 Apr - 12:18:55 10° W 12:21:48 28° NNW 12:24:41 10° NNE daylight
28 Apr - 13:58:33 10° NNW 13:59:02 10° N 13:59:29 10° N daylight
28 Apr - 15:35:55 10° N 15:36:35 10° N 15:37:17 10° NNE daylight
28 Apr - 17:10:51 10° NW 17:13:47 30° NNE 17:16:43 10° E daylight
28 Apr - 18:47:15 10° WNW 18:50:07 28° SW 18:52:57 10° SSE daylight
29 Apr - 09:49:37 10° SSE 09:51:33 15° SE 09:53:35 10° E daylight
29 Apr - 11:24:28 10° WSW 11:27:39 50° NW 11:30:50 10° NE daylight
29 Apr - 13:03:03 10° NW 13:04:38 13° NNW 13:06:11 10° NNE daylight
29 Apr - 16:17:06 10° NNW 16:19:33 19° NNE 16:22:01 10° ENE daylight
29 Apr - 17:52:57 10° WNW 17:56:11 61° SW 17:59:23 10° SE daylight
30 Apr - 10:30:21 10° SW 10:33:35 78° SE 10:36:51 10° NE daylight
30 Apr - 12:08:00 10° WNW 12:10:18 17° NNW 12:12:34 10° NNE daylight
30 Apr - 15:23:28 10° NNW 15:25:14 14° NNE 15:27:03 10° NE daylight
30 Apr - 16:58:54 10° NW 17:02:09 62° NE 17:05:22 10° ESE daylight
30 Apr - 18:36:42 10° WSW 18:38:11 12° SW 18:39:32 10° SSW daylight
01 May - 09:36:39 10° SSW 09:39:37 35° SE 09:42:39 10° ENE daylight
01 May - 11:13:14 10° W 11:16:02 26° NNW 11:18:51 10° NNE daylight
01 May - 14:30:00 10° N 14:30:52 11° NNE 14:31:46 10° NNE daylight
01 May - 16:05:01 10° NW 16:08:01 33° NNE 16:11:01 10° E daylight
01 May - 17:41:33 10° WNW 17:44:18 25° SW 17:47:01 10° S daylight
02 May - 08:43:34 10° S 08:45:44 17° SE 08:47:58 10° E daylight
02 May - 10:18:44 10° WSW 10:21:52 45° NW 10:25:01 10° NE daylight
02 May - 11:57:27 10° NW 11:58:54 12° NNW 12:00:19 10° N daylight
02 May - 15:11:16 10° NNW 15:13:48 21° NNE 15:16:22 10° ENE daylight
02 May - 16:47:10 10° WNW 16:50:22 54° SW 16:53:33 10° SE daylight
03 May - 09:24:33 10° SW 09:27:47 88° SE 09:31:04 10° NE daylight
03 May - 11:02:22 10° WNW 11:04:33 16° NNW 11:06:43 10° NNE daylight
03 May - 14:17:35 10° NNW 14:19:29 15° NNE 14:21:26 10° NE daylight
03 May - 15:53:05 10° NW 15:56:21 70° NE 15:59:36 10° ESE daylight
03 May - 17:31:22 10° WSW 17:32:21 11° SW 17:33:12 10° SW daylight
04 May - 08:30:46 10° SSW 08:33:48 39° SE 08:36:53 10° ENE daylight
04 May - 10:07:32 10° W 10:10:16 24° NNW 10:13:00 10° NNE daylight
04 May - 13:24:04 10° N 13:25:07 11° NNE 13:26:12 10° NNE daylight
04 May - 14:59:11 10° NW 15:02:14 36° NNE 15:05:18 10° E daylight
04 May - 16:35:50 10° WNW 16:38:29 22° SW 16:41:04 10° S daylight
